{"data":{"norad_id":67413,"epoch":"2026-09-19T06:15:44.785728Z","epoch_age_seconds":182335,"freshness":"STALE","line1":"1 67413U 26005K   26262.26093502  .00011322  00000+0  42026-3 0  9994","line2":"2 67413  42.9995 224.5383 0001229 271.4386  88.6325 15.27585068 38306","mean_motion":15.27585068,"eccentricity":0.0001229,"inclination_deg":42.9995,"raan_deg":224.5383,"arg_perigee_deg":271.4386,"mean_anomaly_deg":88.6325,"bstar":0.00042026,"rev_number":3830,"period_min":94.266435969116,"perigee_km":482.19068276026,"apogee_km":483.87715857256,"semimajor_km":6861.1709206664,"source":"CELESTRAK","updated_at":"2026-09-20T09:00:43.520705Z"}}